Weather History for DeLand, FL

Change the Weather History Date:

Tuesday, June 5, 2012

  Actual Average Record
Temperature  
Mean Temperature 81 °F -  
Max Temperature 89 °F 89 °F 82 °F (2013)
Min Temperature 73 °F 68 °F 69 °F (2013)
Cooling Degree Days 16    
Growing Degree Days 31 (Base 50)    
Moisture  
Dew Point 72 °F    
Average Humidity 79    
Maximum Humidity 94    
Minimum Humidity 52    
Precipitation  
Precipitation 0.06 in - - ()
Sea Level Pressure  
Sea Level Pressure 29.84 in    
Wind  
Wind Speed 8 mph ()    
Max Wind Speed 34 mph    
Max Gust Speed 44 mph    
Visibility 9.5 miles    
Events Thunderstorm    
Averages and records for this station are not official NWS values.
T = Trace of Precipitation, MM = Missing Value Source: Averaged Metar Reports

Daily Weather History Graph

Daily Weather History Graph

Search for Another Location

Airport:

Trip Planner

Search our weather history database for the weather conditions in past years. The results will help you decide how hot, cold, wet, or windy it might be!

Date:

Astronomy

Jun. 05, 2012 Rise Set
Actual Time 6:25 AM EDT 8:21 PM EDT
Civil Twilight 5:59 AM EDT 8:48 PM EDT
Nautical Twilight 5:26 AM EDT 9:21 PM EDT
Astronomical Twilight 4:52 AM EDT 9:55 PM EDT
Moon 9:48 PM EDT (6/5) 7:34 AM EDT (6/5)
Length of Visible Light 14h 49m
Length of Day
13h 55m
Full, 98% of the Moon is Illuminated
Jun 5
Full
Jun 11
Last Quarter
Jun 19
New
Jun 26
First Quarter
Jul 3
Full

Hourly Weather History & Observations

Time (EDT) Temp. Heat Index Dew Point Humidity Pressure Visibility Wind Dir Wind Speed Gust Speed Precip Events Conditions
12:35 AM 78.8 °F - 73.4 °F 83% 29.84 in 10.0 mi WSW 9.2 mph - N/A   Clear
12:55 AM 78.8 °F - 73.4 °F 83% 29.83 in 10.0 mi WSW 8.1 mph - N/A   Clear
1:15 AM 77.0 °F - 73.4 °F 89% 29.83 in 10.0 mi WSW 6.9 mph - N/A   Clear
1:35 AM 77.0 °F - 73.4 °F 89% 29.83 in 10.0 mi WSW 8.1 mph - N/A   Clear
1:55 AM 77.0 °F - 73.4 °F 89% 29.82 in 10.0 mi SW 9.2 mph - N/A   Clear
2:15 AM 77.0 °F - 73.4 °F 89% 29.81 in 9.0 mi WSW 6.9 mph - N/A   Clear
2:35 AM 75.2 °F - 73.4 °F 94% 29.81 in 10.0 mi WSW 6.9 mph - N/A   Clear
3:15 AM 75.2 °F - 73.4 °F 94% 29.81 in 9.0 mi WSW 4.6 mph - N/A   Clear
3:35 AM 75.2 °F - 73.4 °F 94% 29.81 in 9.0 mi WSW 5.8 mph - N/A   Clear
3:55 AM 75.2 °F - 73.4 °F 94% 29.81 in 9.0 mi WSW 8.1 mph - N/A   Clear
4:15 AM 75.2 °F - 73.4 °F 94% 29.81 in 9.0 mi WSW 5.8 mph - N/A   Clear
4:35 AM 75.2 °F - 73.4 °F 94% 29.81 in 10.0 mi WSW 5.8 mph - N/A   Partly Cloudy
4:55 AM 75.2 °F - 73.4 °F 94% 29.82 in 10.0 mi WSW 5.8 mph - N/A   Clear
5:15 AM 75.2 °F - 73.4 °F 94% 29.82 in 9.0 mi SW 5.8 mph - N/A   Clear
5:35 AM 75.2 °F - 73.4 °F 94% 29.82 in 9.0 mi SW 4.6 mph - N/A   Clear
5:55 AM 75.2 °F - 73.4 °F 94% 29.83 in 9.0 mi SW 4.6 mph - N/A   Clear
6:15 AM 75.2 °F - 73.4 °F 94% 29.82 in 8.0 mi WSW 3.5 mph - N/A   Clear
6:35 AM 75.2 °F - 73.4 °F 94% 29.83 in 8.0 mi West 5.8 mph - N/A   Clear
6:55 AM 75.2 °F - 73.4 °F 94% 29.83 in 9.0 mi West 4.6 mph - N/A   Clear
7:15 AM 75.2 °F - 73.4 °F 94% 29.84 in 9.0 mi WSW 5.8 mph - N/A   Clear
7:35 AM 77.0 °F - 73.4 °F 89% 29.84 in 10.0 mi WSW 6.9 mph - N/A   Clear
7:55 AM 77.0 °F - 73.4 °F 89% 29.85 in 10.0 mi WSW 8.1 mph - N/A   Clear
8:15 AM 78.8 °F - 73.4 °F 83% 29.86 in 9.0 mi West 6.9 mph - N/A   Clear
8:35 AM 80.6 °F 85.4 °F 73.4 °F 79% 29.87 in 10.0 mi West 8.1 mph - N/A   Clear
8:55 AM 80.6 °F 85.4 °F 73.4 °F 79% 29.87 in 10.0 mi West 8.1 mph - N/A   Clear
9:15 AM 82.4 °F 87.2 °F 71.6 °F 70% 29.87 in 10.0 mi West 11.5 mph 18.4 mph N/A   Clear
9:35 AM 82.4 °F 87.2 °F 71.6 °F 70% 29.87 in 10.0 mi West 10.4 mph - N/A   Clear
9:55 AM 84.2 °F 89.6 °F 71.6 °F 66% 29.86 in 10.0 mi West 11.5 mph 18.4 mph N/A   Clear
10:15 AM 84.2 °F 89.6 °F 71.6 °F 66% 29.86 in 9.0 mi West 11.5 mph - N/A   Clear
10:35 AM 86.0 °F 90.4 °F 69.8 °F 58% 29.86 in 10.0 mi West 12.7 mph 19.6 mph N/A   Clear
10:55 AM 87.8 °F 93.8 °F 71.6 °F 58% 29.85 in 10.0 mi West 10.4 mph - N/A   Partly Cloudy
11:15 AM 87.8 °F 92.6 °F 69.8 °F 55% 29.86 in 10.0 mi West 13.8 mph 19.6 mph N/A   Scattered Clouds
11:35 AM 87.8 °F 93.8 °F 71.6 °F 58% 29.86 in 10.0 mi WSW 13.8 mph 18.4 mph N/A   Scattered Clouds
11:55 AM 87.8 °F 93.8 °F 71.6 °F 58% 29.86 in 10.0 mi West 9.2 mph - N/A   Mostly Cloudy
12:15 PM 87.8 °F 93.8 °F 71.6 °F 58% 29.85 in 10.0 mi WSW 8.1 mph - N/A   Scattered Clouds
12:35 PM 87.8 °F 93.8 °F 71.6 °F 58% 29.83 in 10.0 mi WSW 8.1 mph - N/A   Mostly Cloudy
12:55 PM 86.0 °F 93.4 °F 73.4 °F 66% 29.83 in 6.0 mi SW 11.5 mph - N/A   Mostly Cloudy
1:15 PM 87.8 °F 95.6 °F 73.4 °F 62% 29.83 in 10.0 mi West 6.9 mph - N/A   Scattered Clouds
1:35 PM 89.6 °F 96.2 °F 71.6 °F 55% 29.82 in 10.0 mi West 6.9 mph - 0.01 in   Scattered Clouds
1:55 PM 87.8 °F 93.8 °F 71.6 °F 58% 29.81 in 10.0 mi West 6.9 mph - 0.01 in   Scattered Clouds
2:15 PM 87.8 °F 93.8 °F 71.6 °F 58% 29.81 in 10.0 mi SW 8.1 mph - N/A Thunderstorm Mostly Cloudy
2:35 PM 89.6 °F 96.2 °F 71.6 °F 55% 29.80 in 10.0 mi WSW 11.5 mph 16.1 mph N/A   Scattered Clouds
2:55 PM 89.6 °F 94.7 °F 69.8 °F 52% 29.82 in 10.0 mi WSW 11.5 mph - N/A   Partly Cloudy
3:15 PM 89.6 °F 94.7 °F 69.8 °F 52% 29.83 in 10.0 mi SW 34.5 mph 43.7 mph N/A   Partly Cloudy
3:35 PM 78.8 °F - 69.8 °F 74% 29.83 in 9.0 mi SSW 18.4 mph 38.0 mph N/A   Partly Cloudy
3:55 PM 78.8 °F - 68.0 °F 69% 29.81 in 10.0 mi SW 10.4 mph 19.6 mph N/A   Clear
4:15 PM 78.8 °F - 66.2 °F 65% 29.80 in 10.0 mi SSW 13.8 mph - N/A   Clear
4:35 PM 77.0 °F - 68.0 °F 74% 29.81 in 10.0 mi SW 9.2 mph - N/A   Clear
4:55 PM 77.0 °F - 69.8 °F 78% 29.81 in 10.0 mi SW 11.5 mph - N/A   Clear
5:15 PM 77.0 °F - 71.6 °F 83% 29.81 in 10.0 mi SW 10.4 mph - N/A   Clear
5:35 PM 78.8 °F - 71.6 °F 78% 29.81 in 10.0 mi SW 10.4 mph - N/A   Clear
5:55 PM 78.8 °F - 71.6 °F 78% 29.82 in 10.0 mi West 6.9 mph - N/A Thunderstorm Clear
6:15 PM 80.6 °F 83.9 °F 69.8 °F 70% 29.83 in 10.0 mi WSW 10.4 mph - N/A Thunderstorm Clear
6:35 PM 78.8 °F - 71.6 °F 78% 29.83 in 10.0 mi WSW 12.7 mph 18.4 mph N/A   Clear
6:55 PM 78.8 °F - 69.8 °F 74% 29.85 in 10.0 mi West 16.1 mph 26.5 mph N/A   Partly Cloudy
7:15 PM 73.4 °F - 69.8 °F 88% 29.85 in 4.0 mi West 8.1 mph 17.3 mph 0.01 in   Mostly Cloudy
7:35 PM 73.4 °F - 69.8 °F 88% 29.85 in 5.0 mi WSW 6.9 mph - 0.02 in   Overcast
7:55 PM 73.4 °F - 69.8 °F 88% 29.85 in 10.0 mi SW 5.8 mph - 0.03 in   Partly Cloudy
8:15 PM 73.4 °F - 69.8 °F 88% 29.86 in 10.0 mi SSW 6.9 mph - N/A   Clear
8:35 PM 73.4 °F - 69.8 °F 88% 29.86 in 10.0 mi SW 8.1 mph - 0.01 in   Partly Cloudy
8:55 PM 73.4 °F - 71.6 °F 94% 29.87 in 6.0 mi SW 9.2 mph - 0.01 in   Partly Cloudy
9:15 PM 73.4 °F - 71.6 °F 94% 29.86 in 10.0 mi SW 8.1 mph - N/A   Partly Cloudy
9:35 PM 73.4 °F - 71.6 °F 94% 29.85 in 10.0 mi SW 6.9 mph - N/A   Clear
9:55 PM 73.4 °F - 71.6 °F 94% 29.86 in 10.0 mi SW 5.8 mph - N/A   Clear
10:15 PM 73.4 °F - 71.6 °F 94% 29.86 in 10.0 mi SW 4.6 mph - N/A   Clear
10:55 PM 73.4 °F - 71.6 °F 94% 29.88 in 10.0 mi SW 4.6 mph - 0.01 in   Clear
11:15 PM 73.4 °F - 71.6 °F 94% 29.88 in 10.0 mi Calm Calm - N/A   Partly Cloudy
11:35 PM 73.4 °F - 71.6 °F 94% 29.89 in 10.0 mi SSW 3.5 mph - N/A   Partly Cloudy